Weather History for KTHV - August, 2013

Change the Weather History Date:

Tuesday, August 20, 2013

  Actual Average (WUND) Record (WUND)
Temperature  
Mean Temperature 72 °F -  
Max Temperature 84 °F - - (-1)
Min Temperature 59 °F - - (-1)
Cooling Degree Days 6    
Growing Degree Days 22 (Base 50)    
Moisture  
Dew Point 60 °F    
Average Humidity 81    
Maximum Humidity 94    
Minimum Humidity 44    
Precipitation  
Precipitation 0.01 in - - ()
Sea Level Pressure  
Sea Level Pressure 30.14 in    
Wind  
Wind Speed 1 mph (NW)    
Max Wind Speed 6 mph    
Max Gust Speed -    
Visibility 4 miles    
Events Fog    
Averages and records for this station are not official NWS values.
T = Trace of Precipitation, MM = Missing Value Source: NWS Daily Summary

Daily Weather History Graph

Daily Weather History Graph

Search for Another Location

Airport or City:

Trip Planner

Search our weather history database for the weather conditions in past years. The results will help you decide how hot, cold, wet, or windy it might be!

Date:

Astronomy

Aug. 20, 2013 Rise Set
Actual Time 6:24 AM EDT 7:56 PM EDT
Civil Twilight 5:55 AM EDT 8:25 PM EDT
Nautical Twilight 5:21 AM EDT 8:59 PM EDT
Astronomical Twilight 4:44 AM EDT 9:35 PM EDT
Moon 7:26 PM EDT (8/20) 5:51 AM EDT (8/20)
Length of Visible Light 14h 29m
Length of Day
13h 32m
Full, 100% of the Moon is Illuminated
Aug 20
Full
Aug 20
Full
Aug 28
Last Quarter
Sep 5
New
Sep 12
First Quarter

Hourly Weather History & Observations

Time (EDT) Temp. Heat Index Dew Point Humidity Pressure Visibility Wind Dir Wind Speed Gust Speed Precip Events Conditions
12:43 AM 60.8 °F - 57.2 °F 88% 30.11 in 2.0 mi Calm Calm - N/A   Scattered Clouds
12:45 AM 60.8 °F - 57.2 °F 88% 30.11 in 1.0 mi Calm Calm - N/A   Mist
12:53 AM 60.1 °F - 57.9 °F 93% 30.11 in 0.5 mi Calm Calm - N/A Fog Fog
1:43 AM 59.0 °F - 57.2 °F 94% 30.10 in 1.8 mi Calm Calm - N/A   Mostly Cloudy
1:50 AM 60.8 °F - 57.2 °F 88% 30.10 in 4.0 mi Calm Calm - N/A   Mostly Cloudy
1:53 AM 60.1 °F - 57.0 °F 90% 30.11 in 2.5 mi Calm Calm - N/A   Scattered Clouds
1:57 AM 59.0 °F - 57.2 °F 94% 30.10 in 1.5 mi Calm Calm - N/A   Scattered Clouds
2:01 AM 59.0 °F - 57.2 °F 94% 30.10 in 0.8 mi Calm Calm - N/A   Mist
2:08 AM 59.0 °F - 55.4 °F 88% 30.10 in 1.2 mi Calm Calm - N/A   Mostly Cloudy
2:16 AM 59.0 °F - 55.4 °F 88% 30.10 in 0.8 mi Calm Calm - N/A   Mist
2:53 AM 59.0 °F - 57.0 °F 93% 30.11 in 0.2 mi Calm Calm - N/A Fog Fog
3:11 AM 59.0 °F - 57.2 °F 94% 30.10 in 0.2 mi Calm Calm - N/A Fog Fog
3:32 AM 60.8 °F - 57.2 °F 88% 30.10 in 0.2 mi Calm Calm - N/A Fog Fog
3:53 AM 60.1 °F - 57.9 °F 93% 30.11 in 0.2 mi Calm Calm - N/A Fog Fog
4:53 AM 61.0 °F - 57.9 °F 90% 30.11 in 0.2 mi Calm Calm - N/A Fog Fog
5:53 AM 62.1 °F - 59.0 °F 90% 30.12 in 0.2 mi Calm Calm - 0.01 in Fog Fog
6:53 AM 63.0 °F - 60.1 °F 90% 30.14 in 0.2 mi Calm Calm - N/A Fog Fog
7:53 AM 63.0 °F - 61.0 °F 93% 30.16 in 0.2 mi Calm Calm - N/A Fog Fog
8:53 AM 66.0 °F - 64.0 °F 93% 30.17 in 0.2 mi Calm Calm - N/A Fog Fog
9:09 AM 66.2 °F - 64.4 °F 94% 30.17 in 1.2 mi Calm Calm - N/A   Overcast
9:15 AM 68.0 °F - 64.4 °F 88% 30.17 in 2.5 mi Calm Calm - N/A   Overcast
9:28 AM 68.0 °F - 64.4 °F 88% 30.17 in 5.0 mi WNW 3.5 mph - N/A   Overcast
9:53 AM 69.1 °F - 66.0 °F 90% 30.18 in 6.0 mi Calm Calm - N/A   Mostly Cloudy
10:05 AM 71.6 °F - 66.2 °F 83% 30.18 in 8.0 mi Variable 3.5 mph - N/A   Scattered Clouds
10:53 AM 77.0 °F - 64.9 °F 66% 30.18 in 10.0 mi Variable 3.5 mph - N/A   Clear
11:53 AM 80.1 °F 81.7 °F 64.0 °F 58% 30.17 in 10.0 mi North 5.8 mph - N/A   Clear
12:53 PM 82.0 °F 82.0 °F 57.9 °F 44% 30.17 in 10.0 mi Calm Calm - N/A   Clear
1:53 PM 82.0 °F 82.7 °F 61.0 °F 49% 30.16 in 10.0 mi NW 3.5 mph - N/A   Clear
2:53 PM 82.9 °F 83.2 °F 60.1 °F 46% 30.15 in 10.0 mi Variable 3.5 mph - N/A   Partly Cloudy
3:53 PM 84.0 °F 84.5 °F 62.1 °F 47% 30.13 in 10.0 mi WNW 4.6 mph - N/A   Clear
4:53 PM 82.9 °F 83.7 °F 62.1 °F 49% 30.12 in 10.0 mi Variable 3.5 mph - N/A   Partly Cloudy
5:53 PM 82.9 °F 83.2 °F 60.1 °F 46% 30.12 in 10.0 mi WNW 5.8 mph - N/A   Scattered Clouds
6:53 PM 80.1 °F 81.5 °F 63.0 °F 56% 30.12 in 10.0 mi Calm Calm - N/A   Clear
7:53 PM 72.0 °F - 64.0 °F 76% 30.13 in 10.0 mi Calm Calm - N/A   Clear
8:53 PM 66.9 °F - 62.1 °F 84% 30.15 in 9.0 mi Calm Calm - N/A   Clear
9:53 PM 64.0 °F - 60.1 °F 87% 30.17 in 7.0 mi Calm Calm - N/A   Clear
10:53 PM 62.1 °F - 59.0 °F 90% 30.17 in 5.0 mi Calm Calm - N/A   Clear
11:53 PM 62.1 °F - 59.0 °F 90% 30.17 in 4.0 mi Calm Calm - N/A   Clear